Location: Bienfait
(49.1431°N, 102.8077°W)
Time: 15:34:50
(UTC+00:00)

Envisat - Pass Details

Date: 27 January 2022
Orbit: 764 x 765 km, 98.2° (Epoch: 15 May)

Event Time Altitude Azimuth Distance (km) Brightness Sun altitude
Rises 13:40:05 0° 1° (N) 3,244 6.1 -8.1°
Reaches altitude 10° 13:43:20 10° 339° (NNW) 2,313 5.1 -7.6°
Maximum altitude 13:46:08 15° 305° (NW) 1,976 4.5 -7.2°
Drops below altitude 10° 13:48:57 10° 272° (W) 2,306 4.9 -6.7°
Sets 13:52:11 0° 250° (WSW) 3,228 5.8 -6.2°
